Tillbaka till svenska Fidonet
English   Information   Debug  
FILM   0/18
FNEWS_PUBLISH   4461
FN_SYSOP   41734
FN_SYSOP_OLD1   71952
FTP_FIDO   0/2
FTSC_PUBLIC   0/13627
FUNNY   0/4886
GENEALOGY.EUR   0/71
GET_INFO   105
GOLDED   0/408
HAM   0/16084
HOLYSMOKE   0/6791
HOT_SITES   0/1
HTMLEDIT   0/71
HUB203   466
HUB_100   264
HUB_400   39
HUMOR   0/29
IC   0/2851
INTERNET   0/424
INTERUSER   0/3
IP_CONNECT   719
JAMNNTPD   0/233
JAMTLAND   0/47
KATTY_KORNER   0/41
LAN   0/16
LINUX-USER   0/19
LINUXHELP   0/1155
LINUX   0/22120
LINUX_BBS   0/957
mail   18.68
mail_fore_ok   249
MENSA   0/341
MODERATOR   0/102
MONTE   0/992
MOSCOW_OKLAHOMA   0/1245
MUFFIN   0/783
MUSIC   0/321
N203_STAT   932
N203_SYSCHAT   313
NET203   321
NET204   69
NET_DEV   0/10
NORD.ADMIN   0/101
NORD.CHAT   0/2572
NORD.FIDONET   189
NORD.HARDWARE   0/28
NORD.KULTUR   0/114
NORD.PROG   0/32
NORD.SOFTWARE   0/88
NORD.TEKNIK   0/58
NORD   0/453
OCCULT_CHAT   0/93
OS2BBS   0/787
OS2DOSBBS   0/580
OS2HW   0/42
OS2INET   0/37
OS2LAN   0/134
OS2PROG   0/36
OS2REXX   0/113
OS2USER-L   207
OS2   0/4793
OSDEBATE   0/18996
PASCAL   0/490
PERL   0/457
PHP   0/45
POINTS   0/405
POLITICS   0/29554
POL_INC   0/14731
PSION   103
R20_ADMIN   1124
R20_AMATORRADIO   0/2
R20_BEST_OF_FIDONET   13
R20_CHAT   0/893
R20_DEPP   0/3
R20_DEV   399
R20_ECHO2   1379
R20_ECHOPRES   0/35
R20_ESTAT   0/719
R20_FIDONETPROG...
...RAM.MYPOINT
  0/2
R20_FIDONETPROGRAM   0/22
R20_FIDONET   0/248
R20_FILEFIND   0/24
R20_FILEFOUND   0/22
R20_HIFI   0/3
R20_INFO2   3267
R20_INTERNET   0/12940
R20_INTRESSE   0/60
R20_INTR_KOM   0/99
R20_KANDIDAT.CHAT   42
R20_KANDIDAT   28
R20_KOM_DEV   112
R20_KONTROLL   0/13318
R20_KORSET   0/18
R20_LOKALTRAFIK   0/24
R20_MODERATOR   0/1852
R20_NC   76
R20_NET200   245
R20_NETWORK.OTH...
...ERNETS
  0/13
R20_OPERATIVSYS...
...TEM.LINUX
  0/44
R20_PROGRAMVAROR   0/1
R20_REC2NEC   534
R20_SFOSM   0/341
R20_SF   0/108
R20_SPRAK.ENGLISH   0/1
R20_SQUISH   107
R20_TEST   2
R20_WORST_OF_FIDONET   12
RAR   0/9
RA_MULTI   106
RA_UTIL   0/162
REGCON.EUR   0/2056
REGCON   0/13
SCIENCE   0/1206
SF   0/239
SHAREWARE_SUPPORT   0/5146
SHAREWRE   0/14
SIMPSONS   0/169
STATS_OLD1   0/2539.065
STATS_OLD2   0/2530
STATS_OLD3   0/2395.095
STATS_OLD4   0/1692.25
SURVIVOR   0/495
SYSOPS_CORNER   0/3
SYSOP   0/84
TAGLINES   0/112
TEAMOS2   0/4530
TECH   0/2617
TEST.444   0/105
TRAPDOOR   0/19
TREK   0/755
TUB   0/290
UFO   0/40
UNIX   0/1316
USA_EURLINK   0/102
USR_MODEMS   0/1
VATICAN   0/2740
VIETNAM_VETS   0/14
VIRUS   0/378
VIRUS_INFO   0/201
VISUAL_BASIC   0/473
WHITEHOUSE   0/5187
WIN2000   0/101
WIN32   0/30
WIN95   0/4290
WIN95_OLD1   0/70272
WINDOWS   0/1517
WWB_SYSOP   0/419
WWB_TECH   0/810
ZCC-PUBLIC   0/1
ZEC   4

 
4DOS   0/134
ABORTION   0/7
ALASKA_CHAT   0/506
ALLFIX_FILE   0/1313
ALLFIX_FILE_OLD1   0/7997
ALT_DOS   0/152
AMATEUR_RADIO   0/1039
AMIGASALE   0/14
AMIGA   0/331
AMIGA_INT   0/1
AMIGA_PROG   0/20
AMIGA_SYSOP   0/26
ANIME   0/15
ARGUS   0/924
ASCII_ART   0/340
ASIAN_LINK   0/651
ASTRONOMY   0/417
AUDIO   0/92
AUTOMOBILE_RACING   0/105
BABYLON5   0/17862
BAG   135
BATPOWER   0/361
BBBS.ENGLISH   0/382
BBSLAW   0/109
BBS_ADS   0/5290
BBS_INTERNET   0/507
BIBLE   0/3563
BINKD   0/1119
BINKLEY   0/215
BLUEWAVE   0/2173
CABLE_MODEMS   0/25
CBM   0/46
CDRECORD   0/66
CDROM   0/20
CLASSIC_COMPUTER   0/378
COMICS   0/15
CONSPRCY   0/899
COOKING   33685
COOKING_OLD1   0/24719
COOKING_OLD2   0/40862
COOKING_OLD3   0/37489
COOKING_OLD4   0/35496
COOKING_OLD5   9370
C_ECHO   0/189
C_PLUSPLUS   0/31
DIRTY_DOZEN   0/201
DOORGAMES   0/2065
DOS_INTERNET   0/196
duplikat   6002
ECHOLIST   0/18295
EC_SUPPORT   0/318
ELECTRONICS   0/359
ELEKTRONIK.GER   1534
ENET.LINGUISTIC   0/13
ENET.POLITICS   0/4
ENET.SOFT   0/11701
ENET.SYSOP   33963
ENET.TALKS   0/32
ENGLISH_TUTOR   0/2000
EVOLUTION   0/1335
FDECHO   0/217
FDN_ANNOUNCE   0/7068
FIDONEWS   24191
FIDONEWS_OLD1   0/49742
FIDONEWS_OLD2   0/35949
FIDONEWS_OLD3   0/30874
FIDONEWS_OLD4   0/37224
FIDO_SYSOP   12852
FIDO_UTIL   0/180
FILEFIND   0/209
FILEGATE   0/212
Möte HAM, 16084 texter
 lista första sista föregående nästa
Text 2742, 746 rader
Skriven 2009-01-22 22:00:22 av Amsat List (1:323/120.0)
Ärende: [keps]  orb09022.amsa
=============================
[keps]  orb09022.amsa

Return-Path: <keps-bounces@amsat.org>
X-Rcpt: craig.healy@chowda.com
X-UIDL: 1232679804.12611

SB KEPS @ AMSAT  $ORB09022.O
Orbital Elements  09022.OSCAR

HR AMSAT ORBITAL ELEMENTS FOR OSCAR SATELLITES
FROM WA5QGD FORT WORTH,TX January 22, 2009
Send Subscribe/unsubscribe to KEPS at 
http://www.amsat.org/mailman/listinfo/keps
BID: ORB09022.O
TO ALL RADIO AMATEURS BT

Satellite: AO-07
Catalog number: 07530
Epoch time:      09022.68149561
Element set:     384
Inclination:      101.4430 deg
RA of node:       052.6214 deg
Eccentricity:    0.0011800
Arg of perigee:   193.1742 deg
Mean anomaly:     166.9014 deg
Mean motion:   12.53575091 rev/day
Decay rate:       -2.7e-07 rev/day^2
Epoch rev:           56448
Checksum:              273

Satellite: AO-10
Catalog number: 14129
Epoch time:      09021.61221901
Element set:    0613
Inclination:      026.0162 deg
RA of node:       175.2177 deg
Eccentricity:    0.5966110
Arg of perigee:   191.6952 deg
Mean anomaly:     143.6537 deg
Mean motion:   02.05868760 rev/day
Decay rate:        1.6e-07 rev/day^2
Epoch rev:           19260
Checksum:              277

Satellite: UO-11
Catalog number: 14781
Epoch time:      09021.81278796
Element set:    0868
Inclination:      098.1294 deg
RA of node:       064.7908 deg
Eccentricity:    0.0010213
Arg of perigee:   089.5480 deg
Mean anomaly:     270.6938 deg
Mean motion:   14.79690161 rev/day
Decay rate:        6.9e-07 rev/day^2
Epoch rev:           33618
Checksum:              339

Satellite: RS-15
Catalog number: 23439
Epoch time:      09021.81607228
Element set:    0209
Inclination:      064.8138 deg
RA of node:       141.5096 deg
Eccentricity:    0.0145947
Arg of perigee:   080.1206 deg
Mean anomaly:     281.6159 deg
Mean motion:   11.27553551 rev/day
Decay rate:       -3.9e-07 rev/day^2
Epoch rev:           57961
Checksum:              306

Satellite: FO-29
Catalog number: 24278
Epoch time:      09021.79935838
Element set:    0980
Inclination:      098.5758 deg
RA of node:       275.3389 deg
Eccentricity:    0.0350853
Arg of perigee:   009.7114 deg
Mean anomaly:     351.0579 deg
Mean motion:   13.52941739 rev/day
Decay rate:       -2.6e-07 rev/day^2
Epoch rev:           61395
Checksum:              358

Satellite: SO-33
Catalog number: 25509
Epoch time:      09022.74027532
Element set:     373
Inclination:      031.4291 deg
RA of node:       154.9195 deg
Eccentricity:    0.0354319
Arg of perigee:   146.8763 deg
Mean anomaly:     215.4561 deg
Mean motion:   14.28237758 rev/day
Decay rate:       3.43e-06 rev/day^2
Epoch rev:           53502
Checksum:              303

Satellite: AO-40
Catalog number: 26609
Epoch time:      09022.34456309
Element set:     182
Inclination:      008.5706 deg
RA of node:       036.7997 deg
Eccentricity:    0.7943798
Arg of perigee:   168.0091 deg
Mean anomaly:     239.4707 deg
Mean motion:   01.25583688 rev/day
Decay rate:       -2.1e-07 rev/day^2
Epoch rev:            3779
Checksum:              343

Satellite: VO-52
Catalog number: 28650
Epoch time:      09021.83109999
Element set:    0136
Inclination:      097.7637 deg
RA of node:       088.1162 deg
Eccentricity:    0.0027877
Arg of perigee:   145.6309 deg
Mean anomaly:     214.6688 deg
Mean motion:   14.81547191 rev/day
Decay rate:       3.88e-06 rev/day^2
Epoch rev:           20097
Checksum:              345

Satellite: PO-63
Catalog number: 29712
Epoch time:      09022.77391762
Element set:     170
Inclination:      097.8494 deg
RA of node:       082.5337 deg
Eccentricity:    0.0014861
Arg of perigee:   031.5549 deg
Mean anomaly:     328.6546 deg
Mean motion:   14.80419176 rev/day
Decay rate:       4.78e-06 rev/day^2
Epoch rev:           10995
Checksum:              337

/EX
SB KEPS @ AMSAT  $ORB09022.D
Orbital Elements  09022.MICROS

HR AMSAT ORBITAL ELEMENTS FOR THE MICROSATS
FROM WA5QGD FORT WORTH,TX January 22, 2009
Send Subscribe/unsubscribe to KEPS at 
http://www.amsat.org/mailman/listinfo/keps
BID: ORB09022.D
TO ALL RADIO AMATEURS BT

Satellite: AO-16
Catalog number: 20439
Epoch time:      09022.71076596
Element set:     516
Inclination:      098.2595 deg
RA of node:       357.8814 deg
Eccentricity:    0.0010019
Arg of perigee:   241.8111 deg
Mean anomaly:     118.2071 deg
Mean motion:   14.31814399 rev/day
Decay rate:        3.0e-07 rev/day^2
Epoch rev:           99233
Checksum:              297

Satellite: LO-19
Catalog number: 20442
Epoch time:      09021.81345493
Element set:    0441
Inclination:      098.2248 deg
RA of node:       004.8401 deg
Eccentricity:    0.0010996
Arg of perigee:   241.9986 deg
Mean anomaly:     118.0082 deg
Mean motion:   14.32050859 rev/day
Decay rate:       -4.0e-07 rev/day^2
Epoch rev:           99236
Checksum:              296

Satellite: AO-27
Catalog number: 22825
Epoch time:      09021.83249860
Element set:    0159
Inclination:      098.4168 deg
RA of node:       340.0165 deg
Eccentricity:    0.0008088
Arg of perigee:   342.1473 deg
Mean anomaly:     017.9442 deg
Mean motion:   14.29257017 rev/day
Decay rate:        1.4e-07 rev/day^2
Epoch rev:           79900
Checksum:              304

Satellite: IO-26
Catalog number: 22826
Epoch time:      09022.82831570
Element set:     877
Inclination:      098.4099 deg
RA of node:       341.7910 deg
Eccentricity:    0.0008720
Arg of perigee:   334.8428 deg
Mean anomaly:     025.2336 deg
Mean motion:   14.29507697 rev/day
Decay rate:        1.0e-07 rev/day^2
Epoch rev:           79924
Checksum:              324

